Regional Weather Roundup
Issued by NWS Sterling, VA

Home | Current Version | Previous Version | Text Only | Print | Product List | Glossary On
Versions: 1 2 3 4 5 6 7 8 9 10 11 12 13 14 15 16 17 18 19 20 21 22 23 24 25 26 27
000
ASUS41 KLWX 281711
RWRLWX

REGIONAL WEATHER ROUNDUP
NATIONAL WEATHER SERVICE BALTIMORE MD/WASHINGTON DC
100 PM EDT TUE MAR 28 2017

Note: "FAIR" indicates few or no clouds below 12,000 feet
with no significant weather and/or obstructions to visibility.
 TC=TEMPERATURE CELSIUS

 * =Non NWS site. Station does not report precipitation (e.g. rain,
    snow, etc.), thunder, or fog.

DCZ001-MDZ009-015-VAZ040>042-051-053>054-281800-
WASHINGTON METRO

CITY           SKY/WX    TMP DP  RH WIND       PRES   REMARKS
WASHINGTON NAT CLOUDY    64  60  87 W12       29.86S
DULLES         CLOUDY    63  57  81 W5        29.86F
ANDREWS AFB    DRIZZLE   64  57  77 W18       29.84S
FT BELVOIR     LGT RAIN  64  57  77 NW14G22   29.86R
QUANTICO       CLOUDY    72  57  59 W9        29.85F
COLLEGE PARK*  CLOUDY    65  56  73 W8G16     29.84F
LEESBURG*      CLOUDY    64  63  94 NW7       29.88S

$$

MDZ006>007-011-014-281800-
BALTIMORE METRO

CITY           SKY/WX    TMP DP  RH WIND       PRES   REMARKS
BWI AIRPORT    CLOUDY    67  61  81 W12       29.83F
MD SCIENCE CTR   N/A     61  56  83 MISG      29.84F
MARTIN STATE   LGT RAIN  57  57 100 S3        29.87R
ANNAPOLIS      PTSUNNY   57  54  89 SE8       29.83F
FORT MEADE*    PTSUNNY   64  59  82 W9        29.86F

$$

MDZ012-015-019>023-281800-
MARYLAND EASTERN SHORE

CITY           SKY/WX    TMP DP  RH WIND       PRES   REMARKS
OCEAN CITY     CLOUDY    62  54  74 S9        29.87F
SALISBURY      PTSUNNY   68  58  70 SW7       29.85F
BAY BRIDGE AP* PTSUNNY   61  55  82 W3        29.84F HAZE
CAMBRIDGE*     PTSUNNY   63  59  88 S8        29.85F
EASTON*        PTSUNNY   68  59  73 S9        29.88F

$$

MDZ017>025-281800-
SOUTHERN MARYLAND

CITY           SKY/WX    TMP DP  RH WIND       PRES   REMARKS
PATUXENT RIVER CLOUDY    67  61  81 W13       29.85F
ST INIGOES     CLOUDY    66  59  78 S7        29.86S
LEONARDTOWN*   CLOUDY    64  57  77 SW8       29.87F

$$

MDZ003>005-281800-
NORTH CENTRAL MARYLAND

CITY           SKY/WX    TMP DP  RH WIND       PRES   REMARKS
FREDERICK*     CLOUDY    61  61 100 CALM      29.88F FOG
HAGERSTOWN APT CLOUDY    59  56  89 W6        29.86F FOG
WESTMINSTER*   LGT RAIN  57  57 100 NW6       29.85S

$$

MDZ501>502-281800-
WESTERN MARYLAND

CITY           SKY/WX    TMP DP  RH WIND       PRES   REMARKS
OAKLAND*       CLOUDY    52  50  93 W6        29.91S FOG
CUMBERLAND*    CLOUDY    63  57  82 CALM      29.90F

$$

VAZ025>031-281800-
SHENANDOAH VALLEY

CITY           SKY/WX    TMP DP  RH WIND       PRES   REMARKS
WINCHESTER*    CLOUDY    61  55  82 CALM      29.86F
FRONT ROYAL*   PTSUNNY   64  59  82 CALM      29.85F
LURAY*         CLOUDY    70  57  64 N7        29.85F
NEW MARKET*    CLOUDY    62  56  80 SW8       29.86S
STAUNTON*      CLOUDY    64  56  76 SW8       29.90F
WAYNESBORO*    CLOUDY    66  59  78 W6        29.89F

$$

WVZ021-048>050-054>055-281800-
EASTERN WEST VIRGINIA PANHANDLE

CITY           SKY/WX    TMP DP  RH WIND       PRES   REMARKS
MARTINSBURG    CLOUDY    60  57  89 SW3       29.86F FOG
PETERSBURG*    CLOUDY    66  57  74 CALM      29.87F

$$

VAZ036>039-050-281800-
CENTRAL FOOTHILLS

CITY           SKY/WX    TMP DP  RH WIND       PRES   REMARKS
CHARLOTTESVILL PTSUNNY   67  61  81 SW6       29.86F
CULPEPER*      CLOUDY    69  57  65 CALM      29.86F
ORANGE*        CLOUDY    64  57  77 SW5       29.87S
GORDONSVILLE*  CLOUDY    65  61  85 SW8       29.85S
WARRENTON*     CLOUDY    71  55  55 NW6       29.85F

$$

VAZ055>057-281800-
NORTH AND CENTRAL PIEDMONT

CITY           SKY/WX    TMP DP  RH WIND       PRES   REMARKS
FREDERICKSBRG* CLOUDY    71  59  66 W8G17     29.84F
STAFFORD*      PTSUNNY   71  57  62 W8        29.89F

$$

NCZ024-NYZ072-PAZ021-071-VAZ022-071-281800-
OTHER REGIONAL OBSERVATIONS

CITY           SKY/WX    TMP DP  RH WIND       PRES   REMARKS
NEW YORK CITY  LGT RAIN  44  42  93 NE7       29.94S FOG
PHILADELPHIA   LGT RAIN  51  49  92 NE10      29.87F FOG
PITTSBURGH     CLOUDY    56  56 100 N8        29.89R
ROANOKE        PTSUNNY   70  54  56 W10       29.92S
RICHMOND       PTSUNNY   70  60  70 SW9       29.87F
RALEIGH        PTSUNNY   70  59  68 W10G20    29.93F

$$

ANZ530>537-281800-
MARINE OBSERVATIONS

STATION/POSITION TIME  TEMP    WIND        PRES
                       AIR SEA DIR/SP/G
                 (UTC) (F)     (DEG/KT/KT) (MB)
THOMAS PT LIGHT  1700   56 47  150/ 12/ 13   N/A
BALT KEY BRIDGE  1642   55     110/  5/  6 1010.5F
COVE POINT       1642   56     190/  7/  9 1011.7S
LEWISETTA        1642   65 54  230/  8/ 11 1011.2R
SOLOMONS ISLAND  1642   62 48  210/ 13/ 15   N/A
PINEY POINT      1648          240/  5/  7   N/A

$$





USA.gov is the U.S. government's official web portal to all federal, state and local government web resources and services.